GW3957 Weather Reports


Display with metric or nautical units.
time (UTC)temp
F
wind
direction
speed
MPH
gust
MPH
rain 1hr
in
rain 24hr
in
rain mn
in
humidity
%
barometer
mb
20260901103825 66 213 0.0 0.0 0.00 0.44 0.44 99 1017.6
20260901103319 66 210 0.0 0.0 0.00 0.44 0.44 99 1017.8
20260901102814 66 210 0.0 0.0 0.00 0.44 0.44 99 1017.9
20260901102308 66 224 0.0 0.0 0.00 0.44 0.44 99 1017.9
20260901101804 65 221 0.0 0.0 0.00 0.44 0.44 99 1017.6
20260901101304 66 194 0.0 0.0 0.00 0.44 0.44 99 1017.3
20260901100803 66 223 0.0 0.0 0.00 0.44 0.44 99 1017.5
20260901100258 66 209 0.0 0.0 0.00 0.44 0.44 99 1017.5
20260901095756 66 216 0.0 0.0 0.00 0.44 0.44 99 1017.6
20260901095254 66 216 0.0 0.0 0.00 0.44 0.44 99 1017.9
20260901094748 66 213 0.0 0.0 0.00 0.44 0.44 99 1017.9
20260901094244 66 213 0.0 0.0 0.00 0.44 0.44 99 1017.8
20260901093739 67 219 0.0 0.0 0.00 0.44 0.44 99 1018.0
20260901093237 66 210 0.0 0.0 0.00 0.44 0.44 99 1018.2
20260901092734 66 226 0.0 0.0 0.00 0.44 0.44 99 1018.2
20260901092229 66 210 0.0 0.0 0.12 0.44 0.44 99 1018.3
20260901091725 67 167 0.0 0.0 0.05 0.43 0.43 99 1018.3
20260901091220 66 218 0.0 0.0 0.00 0.42 0.42 99 1018.2
20260901090715 66 212 0.0 0.0 0.00 0.42 0.42 99 1018.1
20260901090210 66 213 0.0 0.0 0.00 0.42 0.42 99 1018.1
20260901085706 66 199 0.0 0.0 0.00 0.42 0.42 99 1018.2
20260901085201 66 210 0.0 0.0 0.00 0.42 0.42 99 1018.2
20260901084657 66 199 0.0 0.0 0.00 0.42 0.42 99 1018.3
20260901084154 66 220 0.0 0.0 0.00 0.42 0.42 99 1018.1
20260901083653 66 221 0.0 0.0 0.00 0.42 0.42 99 1018.2
20260901083152 66 228 0.0 0.0 0.00 0.42 0.42 99 1018.2
20260901082646 66 219 0.0 0.0 0.00 0.42 0.42 99 1018.2
20260901082142 66 212 0.0 0.0 0.00 0.42 0.42 99 1018.1
20260901081637 66 221 0.0 0.0 0.00 0.42 0.42 99 1018.2
20260901081132 66 194 0.0 0.0 0.00 0.42 0.42 99 1018.3
20260901080631 66 207 0.0 0.0 0.00 0.42 0.42 99 1018.3
20260901080130 66 203 0.0 0.0 0.00 0.42 0.42 99 1018.5
20260901075626 66 202 0.0 0.0 0.00 0.42 0.42 99 1018.3
20260901075125 66 202 0.0 0.0 0.00 0.42 0.42 99 1018.3
20260901074625 66 203 0.0 0.0 0.00 0.42 0.42 99 1018.6
20260901074120 66 197 0.0 0.0 0.00 0.42 0.42 99 1018.6
20260901073617 66 202 0.0 0.0 0.00 0.42 0.42 99 1018.5
20260901073111 66 202 0.0 0.0 0.00 0.42 0.42 99 1018.6
20260901072607 66 202 0.0 0.0 0.00 0.42 0.42 99 1018.4
20260901072101 66 202 0.0 0.0 0.00 0.42 0.42 99 1018.4
20260901071556 66 208 0.0 0.0 0.00 0.42 0.42 99 1018.4
20260901071055 66 180 0.0 0.0 0.00 0.42 0.42 99 1018.5
20260901070549 66 199 0.0 0.0 0.00 0.42 0.42 99 1018.3
20260901070045 65 210 0.0 0.0 0.00 0.42 0.42 99 1018.6
20260901065539 66 202 0.0 0.0 0.00 0.42 0.42 99 1018.5
20260901065034 66 223 0.0 0.0 0.00 0.42 0.42 99 1018.6
20260901064531 66 214 0.0 0.0 0.00 0.42 0.42 99 1018.6
20260901064027 66 216 0.0 0.0 0.00 0.42 0.42 99 1018.6
20260901063524 66 219 0.0 0.0 0.00 0.42 0.42 99 1018.9
20260901063019 66 192 0.0 0.0 0.00 0.42 0.42 99 1018.9
20260901062514 66 208 0.0 0.0 0.00 0.42 0.42 99 1018.9
20260901062010 66 227 0.0 0.0 0.00 0.42 0.42 99 1018.9
20260901061506 66 218 0.0 0.0 0.00 0.42 0.42 99 1018.9
20260901061000 66 198 0.0 0.0 0.00 0.42 0.42 99 1019.0
20260901060450 66 209 0.0 0.0 0.00 0.42 0.42 99 1019.0
20260901055949 66 196 0.0 0.0 0.00 0.42 0.42 99 1019.0
20260901055446 66 179 0.0 0.0 0.00 0.42 0.42 99 1019.2
20260901054943 66 224 0.0 0.0 0.00 0.42 0.42 99 1019.2
20260901054440 66 205 0.0 0.0 0.00 0.42 0.42 99 1019.0
20260901053935 66 233 0.0 0.0 0.00 0.42 0.42 99 1019.2
20260901053431 66 207 0.0 0.0 0.00 0.42 0.42 99 1019.3
20260901052926 66 206 0.0 0.0 0.00 0.42 0.42 99 1019.1
20260901052421 66 235 0.0 0.0 0.00 0.42 0.42 99 1019.0
20260901051920 66 172 0.0 0.0 0.00 0.42 0.42 99 1019.2
20260901051416 66 206 0.0 0.0 0.00 0.42 0.42 99 1019.4
20260901050910 66 226 0.0 0.0 0.00 0.42 0.42 99 1019.4
20260901050406 66 204 0.0 0.0 0.00 0.42 0.42 99 1019.3
20260901045905 66 221 0.0 0.0 0.00 0.42 0.42 99 1019.4
20260901045400 66 204 0.0 0.0 0.00 0.42 0.42 99 1019.5
20260901044855 66 218 0.0 1.0 0.00 0.42 0.42 99 1019.5
20260901044351 66 234 0.0 0.0 0.00 0.42 0.42 99 1019.4
20260901043847 66 227 0.0 0.0 0.00 0.42 0.42 99 1019.4
20260901043343 66 222 0.0 0.0 0.00 0.42 0.42 99 1019.5
20260901042842 66 203 0.0 0.0 0.00 0.42 0.42 99 1019.4
20260901042337 66 203 0.0 0.0 0.00 0.42 0.42 99 1019.3
20260901041833 66 201 0.0 1.0 0.00 0.42 0.42 99 1019.2
20260901041328 66 225 0.0 0.0 0.00 0.42 0.42 99 1019.5
20260901040827 66 209 0.0 1.0 0.00 0.42 0.42 99 1019.2
20260901040327 66 56 0.0 0.0 0.00 0.42 0.42 99 1019.4
20260901035826 66 231 0.0 0.0 0.00 0.42 0.42 99 1019.8
20260901035325 66 148 0.0 0.0 0.00 0.42 0.42 99 1019.4
20260901034824 66 219 0.0 0.0 0.00 0.42 0.42 99 1019.4
20260901034319 66 207 0.0 0.0 0.00 0.42 0.42 99 1019.4
20260901033819 66 190 0.0 0.0 0.00 0.42 0.42 99 1019.4
20260901033318 66 183 0.0 1.0 0.00 0.42 0.42 99 1019.4
20260901032817 66 69 0.0 1.0 0.00 0.42 0.42 99 1019.4
20260901032316 66 95 1.0 2.0 0.00 0.42 0.42 99 1019.5
20260901031812 66 208 0.0 0.0 0.00 0.42 0.42 99 1019.4
20260901031308 65 211 0.0 0.0 0.00 0.42 0.42 99 1019.5
20260901030807 65 178 0.0 0.0 0.00 0.42 0.42 99 1019.8
20260901030302 65 181 0.0 0.0 0.00 0.42 0.42 99 1019.7
20260901025802 65 189 0.0 0.0 0.00 0.42 0.42 99 1019.7
20260901025257 65 216 0.0 0.0 0.00 0.42 0.42 99 1019.5
20260901024752 65 228 0.0 0.0 0.00 0.42 0.42 99 1019.7
20260901024251 65 186 0.0 0.0 0.00 0.42 0.42 99 1019.7
20260901023748 65 223 0.0 0.0 0.00 0.42 0.42 99 1019.8
20260901023244 65 228 0.0 0.0 0.00 0.42 0.42 99 1019.5
20260901022739 65 159 0.0 0.0 0.00 0.42 0.42 99 1019.4
20260901022235 65 215 0.0 2.0 0.00 0.42 0.42 99 1019.8
20260901021730 65 228 0.0 0.0 0.00 0.42 0.42 99 1019.9
20260901021225 65 155 0.0 0.0 0.07 0.42 0.42 99 1019.9
20260901020721 65 137 1.0 1.0 0.12 0.42 0.42 99 1020.0
20260901020216 65 234 0.0 0.0 0.12 0.41 0.41 99 1019.8
20260901015711 65 169 0.0 0.0 0.26 0.40 0.40 99 1019.8
20260901015206 65 198 0.0 1.0 0.54 0.39 0.39 99 1020.0
20260901014700 65 174 0.0 1.0 0.66 0.34 0.34 99 1020.0
20260901014157 65 195 0.0 0.0 0.50 0.29 0.29 99 1020.1
20260901013647 65 196 0.0 0.0 0.12 0.23 0.23 99 1020.0
20260901013143 65 173 0.0 1.0 0.00 0.21 0.21 99 1020.0
20260901012642 65 219 0.0 0.0 0.00 0.21 0.21 99 1020.2
20260901012137 65 177 1.0 1.0 0.00 0.21 0.21 99 1020.1
20260901011633 64 182 0.0 1.0 0.00 0.21 0.21 99 1020.1
20260901011132 64 206 0.0 0.0 0.00 0.21 0.21 99 1020.1
20260901010627 64 211 0.0 0.0 0.00 0.21 0.21 99 1020.0
20260901010127 64 205 0.0 0.0 0.00 0.21 0.21 99 1020.0
20260901005626 64 195 0.0 0.0 0.00 0.21 0.21 99 1020.2
20260901005121 64 200 0.0 0.0 0.00 0.21 0.21 99 1020.0
20260901004620 64 190 0.0 0.0 0.00 0.21 0.21 99 1019.9
20260901004116 64 230 0.0 0.0 0.00 0.21 0.21 99 1020.0
20260901003611 64 217 0.0 0.0 0.00 0.21 0.21 99 1019.9
20260901003109 64 132 0.0 0.0 0.00 0.21 0.21 99 1019.9
20260901002604 64 179 0.0 0.0 0.00 0.21 0.21 99 1020.0
20260901002059 64 191 0.0 0.0 0.00 0.21 0.21 99 1019.8
20260901001553 64 197 0.0 0.0 0.00 0.21 0.21 99 1020.0
20260901001048 64 199 0.0 2.0 0.00 0.21 0.21 99 1019.9
20260901000543 64 213 0.0 0.0 0.00 0.21 0.21 99 1020.1
20260901000039 64 45 1.0 1.0 0.00 0.21 0.21 99 1020.0
20260831235532 64 212 0.0 0.0 0.00 0.21 0.21 99 1019.9
20260831235028 64 188 0.0 0.0 0.00 0.21 0.21 99 1020.0
20260831234522 64 200 0.0 0.0 0.00 0.21 0.21 99 1020.1
20260831234018 64 207 0.0 0.0 0.00 0.21 0.21 99 1020.1
20260831233513 64 217 0.0 0.0 0.00 0.21 0.21 99 1020.1
20260831233009 64 218 0.0 0.0 0.00 0.21 0.21 99 1020.3
20260831232504 64 219 0.0 0.0 0.00 0.21 0.21 99 1020.3
20260831231959 64 203 0.0 0.0 0.00 0.21 0.21 99 1020.3
20260831231456 64 206 0.0 0.0 0.00 0.21 0.21 99 1020.3
20260831230952 64 220 0.0 0.0 0.00 0.21 0.21 99 1020.4
20260831230447 64 220 0.0 0.0 0.00 0.21 0.21 99 1020.3
20260831225941 64 218 0.0 0.0 0.00 0.21 0.21 99 1020.7
20260831225437 64 244 0.0 0.0 0.00 0.21 0.21 99 1020.6
20260831224931 64 244 0.0 0.0 0.00 0.21 0.21 99 1020.6
20260831224425 64 244 0.0 0.0 0.00 0.21 0.21 99 1020.6
20260831223920 64 218 0.0 0.0 0.00 0.21 0.21 99 1020.7
20260831223416 64 176 1.0 2.0 0.00 0.21 0.21 99 1020.5
20260831222913 64 211 0.0 0.0 0.00 0.21 0.21 99 1020.7
20260831222408 64 195 0.0 0.0 0.00 0.21 0.21 99 1020.7
20260831221903 64 209 0.0 0.0 0.00 0.21 0.21 99 1020.6
20260831221359 64 186 0.0 1.0 0.00 0.21 0.21 99 1020.6
20260831220854 64 184 0.0 0.0 0.00 0.21 0.21 99 1020.8
20260831220349 64 239 0.0 0.0 0.00 0.21 0.21 99 1020.7
20260831215844 64 234 0.0 0.0 0.00 0.21 0.21 99 1020.6
20260831215339 64 233 0.0 0.0 0.00 0.21 0.21 99 1020.8
20260831214836 64 199 0.0 1.0 0.00 0.21 0.21 99 1020.5
20260831214333 64 224 0.0 0.0 0.00 0.21 0.21 99 1020.7
20260831213828 64 45 3.0 3.0 0.00 0.21 0.21 99 1020.6
20260831213325 64 160 0.0 0.0 0.00 0.21 0.21 99 1020.6
20260831212820 64 200 0.0 0.0 0.00 0.21 0.21 99 1020.6
20260831212317 64 194 0.0 0.0 0.00 0.21 0.21 99 1020.6
20260831211815 64 223 0.0 0.0 0.00 0.21 0.21 99 1020.8
20260831211310 64 210 0.0 0.0 0.05 0.21 0.21 99 1020.9
20260831210809 64 222 0.0 0.0 0.05 0.21 0.21 99 1021.0
20260831210301 64 229 0.0 0.0 0.00 0.20 0.20 99 1021.0
20260831205800 64 227 0.0 0.0 0.00 0.20 0.20 99 1020.8
20260831205256 64 225 0.0 0.0 0.00 0.20 0.20 99 1020.9
20260831204755 64 221 0.0 0.0 0.07 0.20 0.20 99 1021.0
20260831204254 64 229 0.0 0.0 0.07 0.20 0.20 99 1021.1
20260831203754 64 195 0.0 0.0 0.05 0.19 0.19 99 1020.8
20260831203249 64 209 0.0 0.0 0.05 0.19 0.19 99 1020.7
20260831202747 64 198 0.0 0.0 0.00 0.18 0.18 99 1020.9
20260831202242 64 233 0.0 0.0 0.00 0.18 0.18 99 1021.0
20260831201736 64 240 0.0 0.0 0.00 0.18 0.18 99 1021.0
20260831201235 64 219 0.0 0.0 0.00 0.18 0.18 99 1021.0
20260831200731 64 171 0.0 1.0 0.00 0.18 0.18 99 1021.0
20260831200226 64 81 2.0 3.0 0.00 0.18 0.18 99 1021.3
20260831195722 64 214 0.0 1.0 0.00 0.18 0.18 99 1021.2
20260831195217 65 92 0.0 0.0 0.00 0.18 0.18 99 1021.0
20260831194712 65 225 0.0 0.0 0.00 0.18 0.18 99 1021.1
20260831194208 65 175 1.0 1.0 0.00 0.18 0.18 99 1021.0
20260831193707 65 166 0.0 1.0 0.00 0.18 0.18 99 1021.2
20260831193202 64 283 0.0 0.0 0.00 0.18 0.18 99 1021.5
20260831192658 64 206 0.0 0.0 0.00 0.18 0.18 99 1021.5
20260831192153 64 213 0.0 0.0 0.07 0.18 0.18 99 1021.5
20260831191648 64 175 1.0 1.0 0.07 0.18 0.18 99 1021.8
20260831191144 64 203 0.0 0.0 0.00 0.17 0.17 99 1021.9
20260831190639 64 220 0.0 0.0 0.00 0.17 0.17 99 1021.7
20260831190138 64 282 0.0 0.0 0.00 0.17 0.17 99 1021.7
20260831185634 64 208 0.0 2.0 0.05 0.17 0.17 99 1022.0
20260831185130 64 62 0.0 0.0 0.05 0.17 0.17 99 1021.9
20260831184629 64 240 0.0 1.0 0.00 0.16 0.16 99 1022.0
20260831184125 64 205 0.0 1.0 0.07 0.16 0.16 99 1021.9
20260831183619 64 213 0.0 0.0 0.07 0.16 0.16 99 1022.1
20260831183118 64 237 0.0 0.0 0.00 0.15 0.15 99 1022.2
20260831182617 64 345 0.0 2.0 0.05 0.15 0.15 99 1022.1
20260831182114 64 207 0.0 0.0 0.12 0.15 0.15 99 1022.1
20260831181613 64 206 0.0 0.0 0.07 0.14 0.14 99 1022.4
20260831181108 64 180 0.0 0.0 0.07 0.13 0.13 99 1022.3
20260831180603 64 227 0.0 0.0 0.07 0.13 0.13 99 1022.5
20260831180059 64 227 0.0 0.0 0.00 0.12 0.12 99 1022.5
20260831175558 64 215 0.0 0.0 0.00 0.12 0.12 98 1022.6
20260831175055 64 193 0.0 0.0 0.00 0.12 0.12 98 1022.5
20260831174550 64 40 1.0 2.0 0.05 0.12 0.12 97 1022.3
20260831174050 64 134 1.0 1.0 0.05 0.12 0.12 98 1022.4
20260831173548 64 169 1.0 1.0 0.07 0.11 0.11 98 1022.6
20260831173045 64 157 1.0 3.0 0.12 0.11 0.11 97 1022.6
20260831172539 64 202 0.0 1.0 0.12 0.10 0.10 97 1022.5
20260831172034 64 276 0.0 0.0 0.12 0.09 0.09 98 1022.4
20260831171530 64 224 0.0 0.0 0.17 0.08 0.08 97 1022.6
20260831171027 64 225 0.0 0.0 0.19 0.07 0.07 96 1022.6
20260831170522 64 223 0.0 0.0 0.24 0.05 0.05 96 1022.8
20260831170020 65 221 0.0 0.0 0.19 0.03 0.03 94 1022.8
20260831165520 64 221 0.0 0.0 0.07 0.01 0.01 92 1022.9
20260831165017 65 205 0.0 0.0 0.00 0.00 0.00 91 1022.8
20260831164512 65 122 2.0 3.0 0.00 0.00 0.00 90 1022.9
20260831164008 65 230 0.0 0.0 0.00 0.00 0.00 90 1022.8
20260831163503 65 218 0.0 0.0 0.00 0.00 0.00 89 1022.8
20260831163002 65 181 0.0 0.0 0.00 0.00 0.00 90 1022.7
20260831162457 65 193 0.0 1.0 0.00 0.00 0.00 90 1022.7
20260831161955 65 204 0.0 1.0 0.00 0.00 0.00 90 1022.6
20260831161452 65 131 1.0 1.0 0.00 0.00 0.00 89 1022.7
20260831160947 65 185 1.0 1.0 0.00 0.00 0.00 89 1022.7
20260831160447 65 241 0.0 2.0 0.00 0.00 0.00 89 1022.7
20260831155947 65 193 1.0 2.0 0.00 0.00 0.00 88 1022.8
20260831155442 65 200 0.0 0.0 0.00 0.00 0.00 92 1022.9
20260831154937 65 180 1.0 1.0 0.00 0.00 0.00 89 1022.9
20260831154434 65 199 0.0 1.0 0.00 0.00 0.00 89 1022.8
20260831153932 65 136 1.0 3.0 0.00 0.00 0.00 89 1022.6
20260831153428 65 140 1.0 3.0 0.00 0.00 0.00 89 1022.6
20260831152925 65 118 1.0 3.0 0.00 0.00 0.00 90 1022.8
20260831152415 65 215 0.0 1.0 0.00 0.00 0.00 90 1022.7
20260831151910 65 183 0.0 2.0 0.00 0.00 0.00 90 1022.8
20260831151408 64 182 1.0 3.0 0.00 0.00 0.00 90 1022.8
20260831150904 65 200 0.0 2.0 0.00 0.00 0.00 90 1022.7
20260831150400 65 179 0.0 1.0 0.00 0.00 0.00 89 1022.6
20260831145858 65 192 0.0 1.0 0.00 0.00 0.00 89 1022.6
20260831145354 65 313 2.0 4.0 0.00 0.00 0.00 90 1022.5
20260831144850 65 193 2.0 2.0 0.00 0.00 0.00 90 1022.7
20260831144347 64 255 1.0 2.0 0.00 0.00 0.00 90 1022.6
20260831143846 64 144 1.0 3.0 0.00 0.00 0.00 90 1022.5
20260831143341 64 195 0.0 1.0 0.00 0.00 0.00 89 1022.6
20260831142837 64 208 0.0 3.0 0.00 0.00 0.00 89 1022.8
20260831142332 64 192 0.0 0.0 0.00 0.00 0.00 90 1022.6
20260831141826 64 117 1.0 1.0 0.00 0.00 0.00 90 1022.7
20260831141321 64 166 1.0 1.0 0.00 0.00 0.00 90 1022.4
20260831140816 64 215 0.0 1.0 0.00 0.00 0.00 90 1022.4
20260831140310 64 150 0.0 1.0 0.00 0.00 0.00 90 1022.6
20260831135808 64 172 0.0 0.0 0.00 0.00 0.00 90 1022.8
20260831135306 64 145 1.0 2.0 0.00 0.00 0.00 90 1022.9
20260831134759 64 227 0.0 0.0 0.00 0.00 0.00 91 1022.9
20260831134256 64 229 0.0 0.0 0.00 0.00 0.00 91 1022.8
20260831133755 64 221 0.0 2.0 0.00 0.00 0.00 91 1022.7
20260831133254 63 229 0.0 0.0 0.00 0.00 0.00 91 1022.7
20260831132749 63 192 0.0 0.0 0.00 0.00 0.00 92 1022.8
20260831132244 63 196 1.0 2.0 0.00 0.00 0.00 91 1022.7
20260831131738 64 115 3.0 3.0 0.00 0.00 0.00 92 1022.5
20260831131236 64 195 0.0 0.0 0.00 0.00 0.00 92 1022.7
20260831130735 64 191 1.0 1.0 0.00 0.00 0.00 91 1022.8
20260831130231 65 185 0.0 1.0 0.00 0.00 0.00 92 1022.8
20260831125729 66 174 1.0 1.0 0.00 0.00 0.00 88 1022.5
20260831125226 65 240 0.0 1.0 0.00 0.00 0.00 90 1022.7
20260831124720 62 185 0.0 1.0 0.00 0.00 0.00 96 1022.8
20260831124216 62 185 0.0 1.0 0.00 0.00 0.00 96 1022.9
20260831123716 62 194 0.0 0.0 0.00 0.00 0.00 97 1022.8
20260831123216 61 215 0.0 0.0 0.00 0.00 0.00 99 1022.8
20260831122715 0 0.0 0.0 0.00 0.00 0.00 1022.8
20260831122211 0 0.0 0.0 0.00 0.00 0.00 1022.5
20260831121710 0 0.0 0.0 0.00 0.00 0.00 1022.8
20260831121207 0 0.0 0.0 0.00 0.00 0.00 1022.9
20260831120702 0 0.0 0.0 0.00 0.00 0.00 1022.7
20260831120156 0 0.0 0.0 0.00 0.00 0.00 1022.8
20260831115653 0 0.0 0.0 0.00 0.00 0.00 1022.9
20260831115148 0 0.0 0.0 0.00 0.00 0.00 1022.8
20260831114647 0 0.0 0.0 0.00 0.00 0.00 1022.9
20260831114142 57 212 0.0 0.0 0.00 0.00 0.00 99 1022.7
20260831113642 57 212 0.0 0.0 0.00 0.00 0.00 99 1022.6
20260831113137 57 212 0.0 0.0 0.00 0.00 0.00 99 1022.8
20260831112636 57 212 0.0 0.0 0.00 0.00 0.00 99 1022.7
20260831112131 57 212 0.0 0.0 0.00 0.00 0.00 99 1022.6
20260831111627 57 212 0.0 0.0 0.00 0.00 0.00 99 1022.6
20260831111123 57 212 0.0 0.0 0.00 0.00 0.00 99 1022.4
20260831110618 57 212 0.0 0.0 0.00 0.00 0.00 99 1022.4
20260831110109 57 212 0.0 0.0 0.00 0.00 0.00 99 1022.6
20260831105607 57 212 0.0 0.0 0.00 0.00 0.00 99 1022.5
20260831105101 57 212 0.0 0.0 0.00 0.00 0.00 99 1022.5
20260831104557 57 212 0.0 0.0 0.00 0.00 0.00 99 1022.3
20260831104053 57 214 0.0 0.0 0.00 0.00 0.00 99 1022.3